SCP
0 0 0 0 0 0 0 0 1 1 2 3 3 3 3 3 3 3 4 4 5 6 7 9 12 16 15 13 12 11 10 8 6 7 8 9 10 12 14 16 18 21 23 24
0 0 0 0 0 0 0 0 1 1 2 3 4 5 5 4 4 4 5 5 6 7 8 9 11 13 13 13 12 12 10 8 7 7 8 10 12 14 17 19 21 23 23 22
0 0 0 0 0 0 0 0 1 2 3 4 5 7 7 6 5 5 6 6 7 8 9 10 10 11 12 13 13 12 10 9 7 7 8 10 13 16 21 24 26 25 21 18
0 0 0 0 0 0 0 0 1 2 3 4 6 7 6 6 5 6 6 7 7 8 9 10 10 11 13 14 14 12 10 8 8 9 9 10 13 18 25 28 27 22 16 13
0 0 0 0 0 0 0 0 1 2 3 4 5 6 5 4 4 5 6 7 7 8 11 12 13 13 13 14 14 12 10 10 11 11 12 12 15 19 23 23 20 15 12 10
0 0 0 1 1 0 0 1 1 2 2 3 4 5 5 5 4 4 5 6 7 8 11 14 15 14 13 12 11 11 11 11 12 12 12 13 15 17 17 15 13 12 10 9
0 1 1 1 1 1 1 2 2 2 3 4 5 5 6 5 4 4 5 6 7 8 11 13 14 14 13 11 10 9 9 10 11 10 10 10 12 13 14 13 12 12 11 10
1 1 2 3 3 3 3 4 4 4 4 4 5 5 6 6 5 4 5 6 7 8 10 11 11 11 11 11 9 8 8 8 8 8 8 8 10 12 13 13 12 12 11 10
2 3 4 5 5 5 5 6 5 5 4 3 3 5 6 7 6 5 6 7 7 8 9 10 10 10 10 10 10 9 8 7 7 7 7 7 9 11 13 14 14 13 11 10
4 4 5 5 5 5 5 5 4 3 3 2 3 5 8 8 8 8 8 9 8 8 9 9 10 11 12 11 11 11 10 9 8 8 7 7 8 10 12 14 14 12 10 8
5 5 5 5 4 4 3 3 3 2 2 2 3 6 10 11 11 11 11 12 11 9 10 11 13 13 14 14 13 12 11 10 9 8 8 7 7 8 10 11 11 9 8 7
5 5 5 4 3 3 4 4 3 3 3 3 5 10 15 14 12 12 12 13 12 10 11 14 16 17 16 15 14 13 12 10 8 7 7 7 6 7 7 7 6 6 6 7
3 3 4 4 3 3 6 6 4 3 3 3 6 11 16 16 13 11 12 13 12 10 12 16 19 19 16 15 14 12 10 8 7 6 7 8 7 7 6 5 4 3 3 4
2 2 2 2 2 3 6 7 5 4 3 4 5 8 11 12 11 10 11 12 11 10 12 16 18 18 16 14 13 11 9 8 7 6 7 8 8 8 8 6 5 4 2 1
1 1 1 1 2 3 4 6 5 4 4 5 5 6 8 8 9 11 12 12 11 10 12 14 16 16 15 13 11 10 8 7 6 6 6 7 8 8 8 7 7 6 3 1
1 1 1 1 2 2 4 5 4 3 4 6 7 7 7 8 10 13 13 11 10 12 12 14 15 16 15 12 9 8 7 6 6 6 7 7 8 7 7 9 10 8 4 2
0 0 1 2 2 3 4 6 5 4 5 6 7 7 7 9 11 14 15 13 13 15 15 16 17 16 13 10 8 7 7 6 6 7 8 9 9 10 11 12 11 8 4 3
0 1 1 2 2 2 4 6 6 5 5 6 6 7 8 8 10 12 14 15 16 16 15 14 14 13 11 8 7 7 7 7 8 8 9 11 13 14 15 13 9 6 4 3
1 1 1 2 2 2 3 4 6 7 7 6 7 8 8 8 8 9 10 11 12 12 10 9 8 9 8 7 6 7 7 6 7 9 10 13 15 15 14 10 6 4 4 4
1 2 2 2 3 3 3 4 6 7 7 7 7 8 8 7 6 5 5 5 6 6 5 4 5 6 6 5 5 5 6 6 8 10 12 14 13 12 9 6 4 4 4 5
2 2 2 3 4 5 5 5 5 6 6 7 7 7 6 5 4 4 4 4 4 3 2 2 3 4 5 4 4 5 6 8 10 12 13 12 10 8 6 5 4 4 5 6
3 3 3 4 6 6 5 4 4 5 6 6 6 6 5 5 5 4 4 3 2 2 1 2 2 3 3 4 5 6 7 8 9 10 10 10 8 7 5 4 4 5 6 7
4 3 4 5 6 6 4 3 3 5 6 7 6 5 5 5 5 5 3 2 1 1 1 1 1 2 3 4 5 6 6 6 6 7 8 9 8 6 5 4 5 6 7 7
5 5 4 4 6 5 4 3 4 6 7 7 6 5 5 4 4 4 2 1 0 0 0 0 0 1 3 4 4 5 5 6 5 5 6 6 5 5 5 5 6 6 6 7
9 7 6 6 6 5 4 5 6 6 6 7 7 6 4 4 3 2 1 1 1 0 0 0 0 1 2 2 2 3 5 6 6 6 5 4 3 4 5 6 6 5 5 6
10 9 7 7 6 5 4 5 6 5 5 6 6 5 4 3 2 2 1 1 1 1 0 0 0 0 1 1 1 2 3 5 6 6 6 5 4 5 5 5 5 4 4 4
9 8 7 5 4 4 4 4 4 4 4 5 5 5 3 3 2 1 1 1 1 1 0 0 0 0 0 0 0 1 2 3 4 6 6 6 5 6 6 5 4 3 3 3
Wind_Speed
12 13 13 11 11 11 12 12 11 7 4 3 5 5 3 5 6 5 6 4 4 5 5 4 5 4 4 4 4 5 5 5 4 4 3 4 4 3 3 3 4 3 3 3
13 14 14 15 13 12 12 11 10 8 3 2 4 6 3 3 6 5 5 4 3 5 4 4 4 4 3 3 4 4 4 4 4 4 4 4 3 3 3 3 3 3 2 2
12 12 13 14 11 10 9 8 8 8 3 2 3 5 4 3 4 5 4 4 3 3 3 3 3 4 4 3 3 3 4 4 4 4 4 3 3 3 3 3 3 3 3 3
10 11 14 8 6 8 8 7 7 4 0 1 3 4 4 4 3 3 4 3 3 2 2 3 3 4 3 3 3 3 4 4 3 4 4 3 3 3 3 3 3 3 3 3
9 12 12 8 6 6 7 6 6 3 2 1 2 2 4 5 3 3 3 3 2 1 1 1 2 2 2 2 3 3 3 3 3 3 3 3 3 3 2 3 3 4 3 3
10 12 11 4 4 6 7 5 3 4 3 2 1 2 2 4 2 2 3 2 2 1 1 1 1 1 1 1 1 1 1 1 2 2 2 3 3 3 3 3 3 3 3 3
13 13 7 5 5 7 7 2 5 5 5 4 4 4 2 2 2 2 1 1 1 1 1 1 1 1 1 1 1 1 1 1 2 2 2 3 3 3 3 3 3 3 3 3
10 12 7 5 4 3 3 4 5 5 5 5 4 3 2 2 2 1 1 1 0 1 1 1 1 2 1 1 1 1 1 2 3 3 4 3 3 3 4 4 4 4 3 3
4 3 3 5 4 4 3 4 4 4 4 4 4 4 3 2 2 2 1 1 0 0 1 1 1 1 1 1 1 1 2 2 3 3 3 3 4 4 4 3 3 3 2 2
5 3 3 5 4 4 5 4 4 4 4 4 5 4 4 2 1 2 1 1 1 1 1 1 0 0 1 0 1 2 2 2 2 3 3 3 2 2 2 2 3 3 2 2
5 4 5 4 5 5 6 5 5 5 5 4 5 4 4 3 2 2 2 1 1 1 1 1 1 1 1 0 1 2 2 2 3 4 3 2 1 0 1 0 2 3 2 2
6 4 5 5 6 6 6 6 6 6 6 5 5 5 4 4 3 2 2 1 1 1 2 1 1 2 1 1 1 2 2 2 3 2 2 2 2 2 5 2 2 1 1 1
7 8 7 6 7 7 7 7 6 6 6 5 4 4 4 4 4 3 2 2 2 2 2 2 1 2 1 1 2 2 3 3 2 2 2 2 2 2 1 2 4 3 2 2
7 8 7 6 6 7 8 7 7 7 6 5 4 3 3 4 4 4 3 3 4 3 2 1 1 1 2 1 2 2 3 2 2 2 2 2 2 3 3 3 2 0 2 3
7 7 8 8 7 7 8 7 6 6 5 5 4 3 3 3 4 3 3 3 3 3 2 1 1 2 2 1 2 2 2 1 1 2 2 1 2 2 2 2 1 1 2 2
8 8 8 8 7 7 7 6 6 5 5 4 3 2 2 2 3 2 2 2 2 2 2 2 2 2 2 1 1 1 1 2 1 2 1 1 1 1 1 1 1 1 2 2
8 8 7 7 7 7 6 5 4 4 3 3 3 1 2 2 1 1 1 1 2 2 2 2 2 2 2 2 1 2 2 1 1 2 1 1 1 1 1 1 1 1 2 2
7 6 6 6 6 6 5 4 3 3 3 3 3 1 1 1 1 0 1 2 2 3 3 2 2 2 2 2 2 2 1 0 0 1 1 1 1 1 1 1 1 1 1 2
6 5 4 4 5 4 4 3 1 1 2 2 1 1 0 0 1 1 2 2 1 1 2 3 3 2 2 3 2 1 1 1 1 1 1 1 1 1 1 1 1 0 1 1
4 4 3 3 3 3 2 2 1 1 1 1 0 0 1 1 1 1 1 1 2 2 2 2 1 1 2 2 3 2 1 1 0 0 0 1 1 1 0 1 0 0 0 1
4 4 3 2 3 3 3 2 1 0 0 0 1 1 1 1 1 1 1 1 2 3 2 1 1 2 2 2 2 2 1 1 1 1 1 0 1 1 0 0 0 0 0 0
4 4 4 4 4 4 3 3 2 2 2 1 1 1 1 1 1 2 2 2 2 2 1 2 2 3 4 3 2 2 2 1 1 1 1 0 0 0 1 1 0 0 1 1
3 3 3 3 3 3 3 3 2 2 2 2 1 1 1 1 1 1 1 2 2 2 1 2 3 3 3 2 1 2 2 2 2 1 1 1 1 1 1 1 1 2 2 2
3 2 2 2 2 2 1 2 1 1 1 1 1 1 1 1 2 2 2 3 3 2 2 3 3 2 2 1 1 1 2 2 2 2 1 1 2 2 2 2 2 2 3 3
2 1 1 1 0 0 1 0 0 1 1 1 2 2 2 2 2 2 3 3 4 3 3 3 1 0 1 2 2 3 3 3 4 4 4 3 3 2 3 3 3 3 3 3
0 0 0 0 0 0 1 1 1 1 1 2 2 2 3 3 4 3 3 4 4 3 3 2 2 1 1 2 3 3 3 3 3 3 3 3 3 3 3 3 4 3 3 3
1 1 1 1 1 1 1 2 2 2 2 2 3 3 3 3 3 4 4 4 3 3 3 2 2 2 3 3 3 3 3 3 3 3 4 3 3 4 4 5 4 4 4 4
Wind_Direction
273 278 280 273 268 266 266 270 273 266 224 182 125 120 136 130 118 107 96 83 86 101 107 113 115 118 131 144 148 158 161 174 178 183 187 191 194 197 195 197 212 217 223 223
270 266 270 271 267 264 264 269 267 264 224 169 125 112 107 112 118 120 115 109 95 95 109 118 120 130 130 144 146 149 162 176 175 180 190 197 195 190 191 193 207 204 214 227
273 274 274 264 266 273 276 279 276 272 244 154 129 111 111 91 100 117 119 109 96 102 122 132 140 138 147 143 149 158 168 176 177 177 190 195 201 192 197 200 203 202 212 218
268 269 261 263 278 272 274 281 291 314 102 110 113 113 112 95 88 103 96 92 97 100 143 160 153 153 153 159 164 175 180 184 181 185 190 189 196 196 196 197 201 206 216 220
264 261 258 260 271 279 277 281 310 321 332 114 112 124 131 119 116 96 90 75 70 61 52 87 112 123 131 162 183 193 190 185 177 185 193 194 198 193 190 199 206 208 215 220
255 263 262 275 312 308 281 257 336 350 342 332 285 229 127 103 105 86 82 73 35 13 49 84 67 83 112 184 186 194 191 177 168 187 198 197 195 193 198 210 214 213 213 212
248 257 264 315 315 295 272 324 17 11 5 3 12 7 25 48 63 94 87 86 42 14 72 104 102 110 156 236 222 238 234 207 197 206 218 208 197 200 204 214 215 216 218 215
249 254 258 345 327 328 4 16 9 13 9 4 357 5 13 21 31 42 52 44 65 49 63 99 123 140 181 219 245 254 238 216 214 216 228 221 209 214 213 213 219 215 214 220
282 281 12 13 17 16 8 358 355 351 350 338 328 332 340 5 352 323 348 315 271 46 34 82 119 145 204 220 243 252 243 230 222 223 230 225 217 217 216 215 225 220 214 220
285 283 336 347 346 343 335 327 329 326 327 322 319 328 332 329 305 316 317 327 6 11 337 351 336 278 182 206 240 255 243 236 228 218 224 219 220 226 222 226 233 232 229 222
284 293 300 302 316 320 320 312 308 310 309 313 318 322 328 326 325 306 309 317 334 318 294 307 320 336 352 254 232 255 245 235 240 230 218 202 182 58 231 250 252 242 240 224
287 301 298 302 308 309 305 305 306 307 312 319 323 319 324 323 323 316 311 321 296 280 269 273 292 294 301 308 256 246 243 243 247 239 207 199 159 85 38 32 35 35 201 205
305 305 304 307 308 308 305 303 303 298 300 306 322 321 321 320 316 319 323 327 299 274 269 264 261 275 304 322 297 253 248 240 242 241 216 200 182 177 168 51 41 44 67 106
327 321 312 306 301 307 302 299 299 296 299 303 301 302 313 319 315 317 318 307 303 299 303 308 318 328 341 333 311 276 255 233 241 239 222 199 198 211 199 185 177 130 58 99
305 303 299 297 293 294 294 291 289 295 298 299 294 299 313 312 304 312 320 316 317 315 329 347 354 354 351 329 303 285 265 243 242 246 235 222 207 208 198 185 182 154 120 82
301 296 290 289 292 291 287 288 287 288 292 295 296 307 310 299 296 328 332 339 319 317 354 16 22 14 353 324 295 271 242 266 267 270 263 213 207 217 204 199 177 130 125 122
286 286 291 295 295 299 302 299 295 296 305 308 311 312 294 280 290 355 352 0 349 12 41 47 21 4 355 344 299 265 240 214 225 258 252 233 219 226 219 201 155 140 141 145
286 288 295 297 301 302 303 303 299 304 319 319 317 324 315 317 328 1 35 38 46 41 35 40 32 8 355 359 333 310 306 307 257 279 300 7 326 323 7 42 94 124 131 139
302 301 312 325 320 322 328 331 343 348 339 325 325 339 12 58 19 43 55 60 53 33 23 28 22 360 356 15 351 301 304 316 317 325 342 40 14 18 26 38 54 54 90 140
316 321 324 318 325 330 336 352 352 7 349 335 323 352 47 57 59 77 90 79 50 28 17 23 10 356 351 10 342 295 293 302 347 9 17 57 64 52 37 32 50 118 145 150
348 344 349 2 21 24 16 4 11 20 337 159 136 116 91 62 59 79 82 64 53 38 29 35 23 6 7 8 331 330 350 7 44 63 73 101 133 139 157 55 6 3 61 69
1 2 15 37 42 36 22 4 12 27 42 58 94 121 138 131 121 97 74 60 66 51 31 29 34 32 13 0 2 12 13 21 16 12 42 49 101 101 57 24 355 15 56 73
358 6 18 26 38 43 28 14 19 38 68 84 97 106 92 64 77 101 98 88 95 74 46 31 38 51 14 347 13 19 12 12 17 28 44 28 19 32 48 47 34 26 29 39
349 353 11 15 44 59 34 13 30 69 89 92 97 96 102 97 88 87 97 110 101 98 72 60 60 43 323 311 351 14 26 25 16 22 37 42 46 47 46 47 43 36 33 32
336 335 350 4 19 133 133 150 114 114 123 92 95 112 116 100 98 91 92 88 100 105 89 82 97 339 326 7 31 33 33 31 23 19 27 27 35 52 59 46 35 32 32 30
294 256 121 157 319 295 190 167 130 93 92 93 84 76 76 88 98 97 96 96 84 67 65 72 83 96 44 34 37 35 34 48 46 29 27 28 27 28 38 46 43 40 38 38
186 133 126 130 124 103 66 61 58 53 61 67 73 70 73 79 83 82 82 83 85 74 61 58 52 50 50 45 44 38 35 37 31 26 28 31 35 38 39 44 43 39 36 39